• In Denmark
  • List of Countries
  • For 7 days
  • Water Temperature
  • Satellite Maps
  • Weather Map
  • Weather Widgets
  • user-avatar
    Login

    Hourly Weather Kitzbuhel

    Today, 28 July, Friday

    Time Temperature Precipitation Wind Pressure Humidity
    00:00 +13°C° 0.5 mm 1 mps 675 mmHg 92%
    01:00 +13°C° 0.5 mm 1 mps 675 mmHg 93%
    02:00 +13°C° 1.4 mm 1 mps 675 mmHg 94%
    03:00 +13°C° 1.4 mm 1 mps 675 mmHg 94%
    04:00 +13°C° 1.4 mm 1 mps 675 mmHg 95%
    05:00 +14°C° 1 mm 1 mps 675 mmHg 95%
    06:00 +14°C° 1 mm 1 mps 675 mmHg 94%
    07:00 +14°C° 1 mm 1 mps 676 mmHg 94%
    08:00 +15°C° 0.3 mm 1 mps 676 mmHg 90%
    09:00 +18°C° 0.3 mm 1 mps 677 mmHg 86%
    10:00 +19°C° 0.3 mm 1 mps 677 mmHg 82%
    11:00 +20°C° 0.3 mm 1 mps 677 mmHg 79%
    12:00 +20°C° 0.3 mm 2 mps 677 mmHg 75%
    13:00 +21°C° 0.3 mm 2 mps 678 mmHg 72%
    14:00 +20°C° 0.5 mm 2 mps 678 mmHg 74%
    15:00 +20°C° 0.5 mm 2 mps 678 mmHg 77%
    16:00 +19°C° 0.5 mm 2 mps 678 mmHg 80%
    17:00 +20°C° 0.2 mm 1 mps 678 mmHg 84%
    18:00 +19°C° 0.2 mm 1 mps 678 mmHg 87%
    19:00 +18°C° 0.2 mm 1 mps 678 mmHg 91%
    20:00 +18°C° 0 mm 1 mps 678 mmHg 93%
    21:00 +16°C° 0 mm 1 mps 679 mmHg 94%
    22:00 +15°C° 0 mm 1 mps 679 mmHg 95%
    23:00 +14°C° 0 mm 1 mps 679 mmHg 95%

    Tomorrow, 29 July, Saturday

    Time Temperature Precipitation Wind Pressure Humidity
    00:00 +14°C° 0 mm 1 mps 679 mmHg 95%
    01:00 +13°C° 0 mm 1 mps 679 mmHg 95%
    02:00 +13°C° 0 mm 1 mps 679 mmHg 95%
    03:00 +13°C° 0 mm 1 mps 679 mmHg 94%
    04:00 +13°C° 0 mm 1 mps 679 mmHg 94%
    05:00 +14°C° 0 mm 1 mps 679 mmHg 91%
    06:00 +16°C° 0 mm 1 mps 680 mmHg 88%
    07:00 +18°C° 0 mm 1 mps 680 mmHg 85%
    08:00 +21°C° 0 mm 1 mps 680 mmHg 77%
    09:00 +23°C° 0 mm 1 mps 681 mmHg 68%
    10:00 +25°C° 0 mm 1 mps 681 mmHg 60%
    11:00 +25°C° 0.1 mm 1 mps 681 mmHg 60%
    12:00 +25°C° 0.1 mm 2 mps 681 mmHg 60%
    13:00 +25°C° 0.1 mm 2 mps 681 mmHg 60%
    14:00 +25°C° 0.4 mm 2 mps 681 mmHg 63%
    15:00 +25°C° 0.4 mm 2 mps 681 mmHg 65%
    16:00 +25°C° 0.4 mm 2 mps 681 mmHg 67%
    17:00 +23°C° 0.8 mm 1 mps 680 mmHg 74%
    18:00 +22°C° 0.8 mm 1 mps 680 mmHg 81%
    19:00 +21°C° 0.8 mm 1 mps 680 mmHg 88%
    20:00 +20°C° 1.5 mm 1 mps 680 mmHg 90%
    21:00 +19°C° 1.5 mm 1 mps 680 mmHg 92%
    22:00 +18°C° 1.5 mm 1 mps 680 mmHg 94%
    23:00 +18°C° 0.9 mm 1 mps 680 mmHg 94%

    Day after tomorrow, 30 July, Sunday

    Time Temperature Precipitation Wind Pressure Humidity
    00:00 +18°C° 0.9 mm 1 mps 679 mmHg 94%
    01:00 +16°C° 0.9 mm 1 mps 679 mmHg 94%
    02:00 +16°C° 0.4 mm 1 mps 679 mmHg 94%
    03:00 +16°C° 0.4 mm 2 mps 679 mmHg 94%
    04:00 +15°C° 0.4 mm 2 mps 678 mmHg 94%
    05:00 +16°C° 0.2 mm 2 mps 679 mmHg 91%
    06:00 +17°C° 0.2 mm 2 mps 679 mmHg 89%
    07:00 +18°C° 0.2 mm 2 mps 679 mmHg 87%
    08:00 +22°C° 0.2 mm 1 mps 679 mmHg 76%
    09:00 +24°C° 0.2 mm 1 mps 680 mmHg 66%
    10:00 +27°C° 0.2 mm 1 mps 680 mmHg 55%
    11:00 +28°C° 0.3 mm 1 mps 680 mmHg 53%
    12:00 +28°C° 0.3 mm 1 mps 680 mmHg 50%
    13:00 +29°C° 0.3 mm 1 mps 680 mmHg 47%
    14:00 +28°C° 0.8 mm 1 mps 680 mmHg 51%
    15:00 +28°C° 0.8 mm 1 mps 679 mmHg 55%
    16:00 +27°C° 0.8 mm 2 mps 679 mmHg 59%
    17:00 +25°C° 3.1 mm 1 mps 679 mmHg 70%
    18:00 +23°C° 3.1 mm 1 mps 679 mmHg 81%
    19:00 +20°C° 3.1 mm 1 mps 679 mmHg 92%
    20:00 +19°C° 0.8 mm 2 mps 679 mmHg 93%
    21:00 +18°C° 0.8 mm 2 mps 679 mmHg 93%
    22:00 +17°C° 0.8 mm 2 mps 679 mmHg 93%
    23:00 +17°C° 0 mm 2 mps 679 mmHg 93%

    31 July, Monday

    Time Temperature Precipitation Wind Pressure Humidity
    00:00 +16°C° 0 mm 2 mps 679 mmHg 92%
    01:00 +16°C° 0 mm 2 mps 679 mmHg 91%
    02:00 +15°C° 0 mm 1 mps 679 mmHg 92%
    03:00 +15°C° 0 mm 1 mps 679 mmHg 92%
    04:00 +14°C° 0 mm 1 mps 679 mmHg 93%
    05:00 +16°C° 0 mm 1 mps 679 mmHg 90%
    06:00 +18°C° 0 mm 1 mps 680 mmHg 87%
    07:00 +20°C° 0 mm 1 mps 680 mmHg 84%
    08:00 +22°C° 0 mm 1 mps 681 mmHg 73%
    09:00 +25°C° 0 mm 1 mps 681 mmHg 61%
    10:00 +28°C° 0 mm 1 mps 682 mmHg 50%
    11:00 +28°C° 0 mm 1 mps 682 mmHg 48%
    12:00 +29°C° 0 mm 1 mps 682 mmHg 46%
    13:00 +30°C° 0 mm 2 mps 681 mmHg 43%
    14:00 +30°C° 0 mm 2 mps 681 mmHg 46%
    15:00 +29°C° 0 mm 2 mps 681 mmHg 49%
    16:00 +29°C° 0 mm 2 mps 681 mmHg 52%
    17:00 +27°C° 0.4 mm 2 mps 681 mmHg 62%
    18:00 +26°C° 0.4 mm 1 mps 681 mmHg 72%
    19:00 +24°C° 0.4 mm 1 mps 680 mmHg 82%
    20:00 +23°C° 0.4 mm 1 mps 680 mmHg 84%
    21:00 +22°C° 0.4 mm 1 mps 681 mmHg 85%
    22:00 +20°C° 0.4 mm 2 mps 681 mmHg 87%
    23:00 +19°C° 0 mm 2 mps 680 mmHg 86%

    1 August, Tuesday

    Time Temperature Precipitation Wind Pressure Humidity
    00:00 +18°C° 0 mm 2 mps 680 mmHg 86%
    01:00 +18°C° 0 mm 2 mps 680 mmHg 86%
    02:00 +18°C° 0 mm 2 mps 680 mmHg 85%
    03:00 +17°C° 0 mm 2 mps 679 mmHg 83%
    04:00 +17°C° 0 mm 2 mps 679 mmHg 82%
    05:00 +18°C° 0 mm 2 mps 680 mmHg 79%
    06:00 +19°C° 0 mm 2 mps 680 mmHg 76%
    07:00 +21°C° 0 mm 2 mps 680 mmHg 73%
    08:00 +24°C° 0 mm 2 mps 681 mmHg 64%
    09:00 +26°C° 0 mm 1 mps 681 mmHg 55%
    10:00 +29°C° 0 mm 1 mps 682 mmHg 46%
    11:00 +29°C° 0 mm 1 mps 682 mmHg 45%
    12:00 +30°C° 0 mm 2 mps 681 mmHg 43%
    13:00 +31°C° 0 mm 2 mps 681 mmHg 41%
    14:00 +31°C° 0 mm 2 mps 681 mmHg 44%
    15:00 +30°C° 0 mm 2 mps 681 mmHg 46%
    16:00 +30°C° 0 mm 2 mps 681 mmHg 49%
    17:00 +28°C° 0.7 mm 2 mps 680 mmHg 59%
    18:00 +26°C° 0.7 mm 2 mps 680 mmHg 70%
    19:00 +25°C° 0.7 mm 2 mps 680 mmHg 81%
    20:00 +23°C° 3.3 mm 2 mps 680 mmHg 86%
    21:00 +20°C° 3.3 mm 2 mps 681 mmHg 91%
    22:00 +18°C° 3.3 mm 2 mps 681 mmHg 96%
    23:00 +18°C° 0.2 mm 2 mps 681 mmHg 96%

    2 August, Wednesday

    Time Temperature Precipitation Wind Pressure Humidity
    00:00 +17°C° 0.2 mm 2 mps 681 mmHg 97%
    01:00 +18°C° 0.2 mm 1 mps 681 mmHg 97%
    02:00 +18°C° 0 mm 1 mps 681 mmHg 96%
    03:00 +18°C° 0 mm 1 mps 681 mmHg 94%
    04:00 +16°C° 0 mm 1 mps 681 mmHg 93%
    05:00 +19°C° 0 mm 1 mps 681 mmHg 89%
    06:00 +20°C° 0 mm 1 mps 682 mmHg 85%
    07:00 +21°C° 0 mm 1 mps 682 mmHg 80%
    08:00 +24°C° 0 mm 1 mps 682 mmHg 70%
    09:00 +26°C° 0 mm 1 mps 683 mmHg 59%
    10:00 +28°C° 0 mm 1 mps 683 mmHg 48%
    11:00 +29°C° 0 mm 1 mps 683 mmHg 47%
    12:00 +29°C° 0 mm 2 mps 683 mmHg 46%
    13:00 +30°C° 0 mm 2 mps 683 mmHg 45%
    14:00 +29°C° 0 mm 2 mps 683 mmHg 49%
    15:00 +29°C° 0 mm 2 mps 682 mmHg 53%
    16:00 +28°C° 0 mm 2 mps 682 mmHg 57%
    17:00 +27°C° 0.4 mm 1 mps 682 mmHg 66%
    18:00 +25°C° 0.4 mm 1 mps 682 mmHg 75%
    19:00 +24°C° 0.4 mm 1 mps 681 mmHg 84%
    20:00 +22°C° 0.1 mm 1 mps 681 mmHg 85%
    21:00 +21°C° 0.1 mm 1 mps 682 mmHg 87%
    22:00 +20°C° 0.1 mm 1 mps 682 mmHg 89%
    23:00 +20°C° 0.1 mm 1 mps 682 mmHg 88%
    Show more